Preview of NWS' New Version of Forecast
This preview is not operational and should not be used for support decisions.

Regional Weather Roundup (RWR)

Issued by National Weather Service (NWS)

                            
000
ASUS43 KLSX 231307
RWRMO 

WEATHER SUMMARY FOR MISSOURI
NATIONAL WEATHER SERVICE SPRINGFIELD MO
800 AM CDT TUE JUL 23 2019

NOTE: "FAIR" INDICATES FEW OR NO CLOUDS BELOW 12,000 FEET WITH NO
       SIGNIFICANT WEATHER AND/OR OBSTRUCTIONS TO VISIBILITY.
       CURRENT SKY AND/OR WEATHER CONDITIONS ARE NOT AVAILABLE FOR
       CHILLICOTHE AND FARMINGTON.

MOZ001>031-035>038-043-044-053-054-231400-
...NORTHERN AND WESTERN MISSOURI...
  
CITY           SKY/WX    TMP DP  RH WIND       PRES   REMARKS
KANSAS CTY INT MOSUNNY   63  57  81 N6        30.27R                  
KANSAS C DTWN  MOSUNNY   66  56  70 CALM      30.27R                  
LEE'S SUMMIT   MOSUNNY   65  56  72 N6        30.27R                  
ST JOSEPH      SUNNY     63  58  83 CALM      30.29R                  
CHILLICOTHE      N/A     65  57  75 VRB3      30.28R                  
KIRKSVILLE     SUNNY     65  58  78 N6        30.26R                  
     
$$
MOZ066>068-077>081-088>096-101>105-231400-
...SOUTHWEST MISSOURI...
  
CITY           SKY/WX    TMP DP  RH WIND       PRES   REMARKS
SPRINGFIELD    SUNNY     67  62  84 N6        30.22R                  
JOPLIN         SUNNY     66  60  81 VRB5      30.24R                  
BRANSON        SUNNY     66  63  88 CALM      30.21R                  
               
$$
MOZ032>034-039>042-045>050-055>058-069>072-231400-
...CENTRAL MISSOURI...  
  
CITY           SKY/WX    TMP DP  RH WIND       PRES   REMARKS
COLUMBIA       SUNNY     68  60  75 N7        30.22R                  
ROLLA          SUNNY     66  62  87 N5        30.22R                  
SEDALIA        SUNNY     63  62  97 N6        30.25R                  
WHITEMAN AFB   MOSUNNY   64  61  92 N6        30.21R                  
WARRENSBURG    SUNNY     63  59  88 N5        30.25R                  
OSAGE BEACH    SUNNY     67  63  87 VRB5      30.22R                  
               
$$
MOZ051-052-059>065-231400-
...EAST CENTRAL MISSOURI...
  
CITY           SKY/WX    TMP DP  RH WIND       PRES   REMARKS
ST LOUIS INTL  SUNNY     68  58  70 N7        30.18R                  
SPIRIT OF STL  SUNNY     69  61  75 NW7       30.17S                  
ST CHARLES       N/A    N/A N/A N/A MISG      30.17R                  
                   
$$
MOZ072>076-082>087-097>100-106>115-231400-
...SOUTH CENTRAL AND SOUTHEAST MISSOURI...
  
CITY           SKY/WX    TMP DP  RH WIND       PRES   REMARKS
CAPE GIRARDEAU FAIR      68  56  65 N8        30.12R                  
FARMINGTON     SUNNY     66  58  75 NW8       30.17S                  
POPLAR BLUFF   FAIR      68  62  81 N8        30.13R                  
WEST PLAINS    SUNNY     69  62  78 N6        30.20R                  
                                       
$$